Concordia, KS

6:24 PM CDT on July 25, 2017 (GMT -0500)
Blosser Municipal

Weather History for KCNK - March, 2013

Change the Weather History Date:

Monday, March 11, 2013

  Actual Average Record
Temperature  
Mean Temperature 25 °F 41 °F  
Max Temperature 38 °F 53 °F 85 °F (1972)
Min Temperature 11 °F 30 °F -11 °F (1948)
Degree Days  
Heating Degree Days 40 24  
Month to date heating degree days 334 281  
Since 1 July heating degree days 4353 4488  
Cooling Degree Days 0 0  
Month to date cooling degree days 0 0  
Year to date cooling degree days 0 0  
Moisture  
Dew Point 16 °F    
Average Humidity 65    
Maximum Humidity 84    
Minimum Humidity 45    
Precipitation  
Precipitation 0.00 in 0.06 in 0.84 in (1899)
Month to date precipitation 0.21 0.54  
Year to date precipitation 1.69 1.91  
Snow  
Snow 0.00 in 0.10 in 4.70 in (1951)
Month to date snowfall 2.0 0.8  
Year to date snowfall 15.6 11.2  
Since 1 July snowfall 24.1 17.7  
Snow Depth 2.00 in    
Sea Level Pressure  
Sea Level Pressure 30.01 in    
Wind  
Wind Speed 7 mph (WNW)    
Max Wind Speed 16 mph    
Max Gust Speed 23 mph    
Visibility 10 miles    
Events      
T = Trace of Precipitation, MM = Missing Value Source: NWS Daily Summary

Daily Weather History Graph

Daily Weather History Graph

Search for Another Location

Airport or City:

Trip Planner

Search our weather history database for the weather conditions in past years. The results will help you decide how hot, cold, wet, or windy it might be!

Date:

Astronomy

Mar. 11, 2013 Rise Set
Actual Time 7:47 AM CDT 7:33 PM CDT
Civil Twilight 7:21 AM CDT 8:00 PM CDT
Nautical Twilight 6:49 AM CDT 8:31 PM CDT
Astronomical Twilight 6:18 AM CDT 9:03 PM CDT
Moon 7:22 AM CDT (3/11) 7:47 PM CDT (3/11)
Length of Visible Light 12h 39m
Length of Day
11h 45m
Waning Crescent, 0% of the Moon is Illuminated
Mar 11
Waning Crescent
Mar 11
New
Mar 19
First Quarter
Mar 27
Full
Apr 2
Last Quarter

Hourly Weather History & Observations

Time (CDT) Temp. Windchill Dew Point Humidity Pressure Visibility Wind Dir Wind Speed Gust Speed Precip Events Conditions
12:55 AM 23.0 °F 12.4 °F 16.0 °F 74% 30.05 in 9.0 mi NNW 10.4 mph - N/A   Partly Cloudy
1:42 AM 23.0 °F 14.7 °F 15.8 °F 74% 29.99 in 9.0 mi NW 6.9 mph - N/A   Mostly Cloudy
1:55 AM 23.0 °F 11.1 °F 16.0 °F 74% 30.04 in 9.0 mi NNW 12.7 mph - N/A   Mostly Cloudy
2:26 AM 21.2 °F 8.9 °F 14.0 °F 74% 29.98 in 10.0 mi North 12.7 mph - N/A   Scattered Clouds
2:55 AM 19.9 °F 9.3 °F 12.9 °F 74% 30.03 in 10.0 mi North 9.2 mph - N/A   Clear
3:32 AM 19.4 °F 5.0 °F 12.2 °F 74% 29.98 in 10.0 mi NW 16.1 mph - N/A   Mostly Cloudy
3:55 AM 19.0 °F 6.1 °F 12.0 °F 74% 30.02 in 10.0 mi NNW 12.7 mph 23.0 mph N/A   Mostly Cloudy
4:22 AM 17.6 °F 5.7 °F 12.2 °F 79% 29.96 in 10.0 mi NNW 10.4 mph 18.4 mph N/A   Partly Cloudy
4:38 AM 17.6 °F 8.2 °F 10.4 °F 73% 29.96 in 9.0 mi WNW 6.9 mph - N/A   Mostly Cloudy
4:50 AM 15.8 °F 5.1 °F 10.4 °F 79% 29.95 in 10.0 mi NW 8.1 mph - N/A   Scattered Clouds
4:55 AM 16.0 °F 5.3 °F 10.9 °F 81% 30.01 in 10.0 mi NW 8.1 mph - N/A   Scattered Clouds
5:55 AM 12.9 °F -0.2 °F 9.0 °F 84% 30.02 in 9.0 mi WNW 10.4 mph - N/A   Clear
6:55 AM 12.0 °F 0.5 °F 8.1 °F 84% 30.02 in 9.0 mi West 8.1 mph - N/A   Clear
7:55 AM 12.0 °F 0.5 °F 8.1 °F 84% 30.04 in 8.0 mi West 8.1 mph - N/A   Clear
8:55 AM 14.0 °F 1.2 °F 8.1 °F 77% 30.05 in 8.0 mi West 10.4 mph - N/A   Clear
9:55 AM 18.0 °F 6.9 °F 10.9 °F 74% 30.06 in 10.0 mi West 9.2 mph - N/A   Clear
10:55 AM 21.0 °F 9.9 °F 12.0 °F 68% 30.05 in 10.0 mi NW 10.4 mph - N/A   Clear
11:55 AM 25.0 °F 14.2 °F 12.9 °F 60% 30.04 in 10.0 mi WNW 11.5 mph - N/A   Clear
12:55 PM 28.0 °F 19.3 °F 14.0 °F 56% 30.03 in 10.0 mi WNW 9.2 mph - N/A   Clear
1:55 PM 30.9 °F 22.8 °F 15.1 °F 52% 30.01 in 10.0 mi WNW 9.2 mph - N/A   Clear
2:55 PM 32.0 °F 25.6 °F 14.0 °F 48% 29.98 in 10.0 mi West 6.9 mph - N/A   Clear
3:55 PM 34.0 °F 25.5 °F 18.0 °F 52% 29.98 in 10.0 mi WSW 11.5 mph - N/A   Clear
4:55 PM 36.0 °F 29.6 °F 21.9 °F 57% 29.95 in 10.0 mi SW 8.1 mph - N/A   Clear
5:55 PM 37.4 °F 31.4 °F 23.0 °F 56% 29.91 in 10.0 mi SW 8.1 mph - N/A   Clear
6:55 PM 37.0 °F 31.6 °F 25.0 °F 62% 29.95 in 10.0 mi SW 6.9 mph - N/A   Clear
7:55 PM 35.1 °F - 24.1 °F 64% 29.97 in 10.0 mi Calm Calm - N/A   Clear
8:55 PM 34.0 °F - 24.1 °F 67% 29.99 in 10.0 mi Calm Calm - N/A   Scattered Clouds
9:55 PM 33.1 °F - 25.0 °F 72% 30.01 in 10.0 mi Calm Calm - N/A   Clear
10:55 PM 33.1 °F - 26.1 °F 75% 30.05 in 8.0 mi Calm Calm - N/A   Clear
11:55 PM 33.1 °F - 26.1 °F 75% 30.06 in 10.0 mi Calm Calm - N/A   Clear